Terminal Aerodrome Forecast
Issued by NWS Riverton, WY

Home | Current Version | Previous Version | Text Only | Print | Product List | Glossary On
Versions: 1 2 3 4 5 6 7 8 9 10 11 12 13
000
FTUS45 KRIW 231100
TAFRIW
TAF
KRIW 231128Z 2312/2412 28008KT P6SM SCT090
     FM231900 VRB05KT P6SM FEW090
     FM240200 29008KT P6SM SKC=

USA.gov is the U.S. government's official web portal to all federal, state and local government web resources and services.